Madison, WI

6:09 AM CDT on June 25, 2018 (GMT -0500)
Dane County Regional-Truax

Weather History for KMSN - September, 2013

Change the Weather History Date:

Sunday, September 8, 2013

  Actual Average Record
Temperature  
Mean Temperature 68 °F 64 °F  
Max Temperature 73 °F 75 °F 97 °F (1978)
Min Temperature 63 °F 54 °F 37 °F (1986)
Degree Days  
Heating Degree Days 0 3  
Month to date heating degree days 9 20  
Since 1 July heating degree days 39 57  
Cooling Degree Days 3 3  
Month to date cooling degree days 36 24  
Year to date cooling degree days 649 537  
Growing Degree Days 18 (Base 50)    
Moisture  
Dew Point 62 °F    
Average Humidity 84    
Maximum Humidity 90    
Minimum Humidity 78    
Precipitation  
Precipitation 0.00 in 0.12 in 2.79 in (1941)
Month to date precipitation 0.00 0.91  
Year to date precipitation 36.48 25.73  
Snow  
Snow 0.00 in 0.00 in 0.00 in ()
Month to date snowfall 0.0 0.0  
Since 1 July snowfall 0.0 0.0  
Since 1 September snowfall 0.0 0.0  
Snow Depth 0.00 in    
Sea Level Pressure  
Sea Level Pressure 30.02 in    
Wind  
Wind Speed 10 mph (ENE)    
Max Wind Speed 20 mph    
Max Gust Speed 26 mph    
Visibility 10 miles    
Events      
T = Trace of Precipitation, MM = Missing Value Source: NWS Daily Summary

Daily Weather History Graph

Daily Weather History Graph

Search for Another Location

Airport or City:

Astronomy

Sep. 08, 2013 Rise Set
Actual Time 6:29 AM CDT 7:19 PM CDT
Civil Twilight 6:00 AM CDT 7:48 PM CDT
Nautical Twilight 5:26 AM CDT 8:22 PM CDT
Astronomical Twilight 4:50 AM CDT 8:58 PM CDT
Moon 9:53 AM CDT (9/8) 8:47 PM CDT (9/8)
Length of Visible Light 13h 47m
Length of Day
12h 49m
Waxing Crescent, 11% of the Moon is Illuminated
Sep 8
Waxing Crescent
Sep 12
First Quarter
Sep 19
Full
Sep 26
Last Quarter
Oct 4
New

Hourly Weather History & Observations

Time (CDT) Temp. Dew Point Humidity Pressure Visibility Wind Dir Wind Speed Gust Speed Precip Events Conditions
12:53 AM 71.1 °F 66.0 °F 84% 30.00 in 10.0 mi ENE 16.1 mph - N/A   Scattered Clouds
1:21 AM 69.8 °F 64.4 °F 83% 30.02 in 10.0 mi ENE 11.5 mph - N/A   Overcast
1:53 AM 69.1 °F 64.0 °F 84% 30.01 in 10.0 mi ENE 13.8 mph - N/A   Overcast
2:53 AM 66.9 °F 62.1 °F 84% 30.01 in 10.0 mi NE 15.0 mph - N/A   Overcast
3:12 AM 66.2 °F 60.8 °F 83% 30.03 in 10.0 mi NE 12.7 mph - N/A   Overcast
3:53 AM 66.0 °F 60.1 °F 81% 30.02 in 10.0 mi NE 15.0 mph - N/A   Overcast
4:29 AM 64.4 °F 60.8 °F 88% 30.04 in 10.0 mi NE 9.2 mph - N/A   Overcast
4:36 AM 64.4 °F 60.8 °F 88% 30.04 in 10.0 mi NE 8.1 mph - N/A   Overcast
4:53 AM 64.0 °F 59.0 °F 84% 30.02 in 10.0 mi NNE 8.1 mph - N/A   Mostly Cloudy
5:06 AM 64.4 °F 59.0 °F 83% 30.03 in 10.0 mi NE 8.1 mph - N/A   Mostly Cloudy
5:41 AM 64.4 °F 57.2 °F 77% 30.03 in 10.0 mi NE 10.4 mph - N/A   Mostly Cloudy
5:44 AM 62.6 °F 57.2 °F 82% 30.03 in 10.0 mi NE 11.5 mph - N/A   Mostly Cloudy
5:53 AM 63.0 °F 57.9 °F 84% 30.02 in 10.0 mi NE 11.5 mph - N/A   Scattered Clouds
6:17 AM 62.6 °F 57.2 °F 82% 30.05 in 10.0 mi NE 10.4 mph - N/A   Mostly Cloudy
6:27 AM 62.6 °F 57.2 °F 82% 30.06 in 10.0 mi NE 11.5 mph - N/A   Mostly Cloudy
6:53 AM 63.0 °F 59.0 °F 87% 30.06 in 10.0 mi ENE 11.5 mph - N/A   Overcast
7:53 AM 64.0 °F 60.1 °F 87% 30.05 in 10.0 mi ENE 9.2 mph - N/A   Overcast
8:53 AM 64.9 °F 60.1 °F 84% 30.05 in 10.0 mi ENE 9.2 mph - N/A   Overcast
9:53 AM 66.9 °F 61.0 °F 81% 30.06 in 10.0 mi ENE 10.4 mph - N/A   Overcast
10:53 AM 69.1 °F 62.1 °F 78% 30.07 in 10.0 mi ENE 11.5 mph - N/A   Overcast
11:53 AM 70.0 °F 63.0 °F 78% 30.06 in 10.0 mi ENE 11.5 mph - N/A   Overcast
12:53 PM 71.1 °F 64.0 °F 78% 30.05 in 10.0 mi East 11.5 mph - N/A   Overcast
1:08 PM 71.6 °F 64.4 °F 78% 30.05 in 10.0 mi East 9.2 mph - N/A   Overcast
1:53 PM 71.1 °F 64.0 °F 78% 30.04 in 10.0 mi East 10.4 mph - N/A   Overcast
2:11 PM 71.6 °F 64.4 °F 78% 30.04 in 10.0 mi East 10.4 mph - N/A   Overcast
2:48 PM 69.8 °F 64.4 °F 83% 30.04 in 10.0 mi ENE 10.4 mph - N/A   Overcast
2:53 PM 70.0 °F 64.0 °F 81% 30.03 in 10.0 mi ENE 10.4 mph - N/A   Overcast
3:11 PM 71.6 °F 64.4 °F 78% 30.03 in 10.0 mi ENE 11.5 mph - N/A   Overcast
3:23 PM 71.6 °F 64.4 °F 78% 30.03 in 10.0 mi East 10.4 mph - N/A   Overcast
3:53 PM 72.0 °F 64.9 °F 78% 30.01 in 10.0 mi ENE 6.9 mph - N/A   Overcast
4:12 PM 73.4 °F 64.4 °F 73% 30.00 in 10.0 mi East 12.7 mph - N/A   Overcast
4:45 PM 71.6 °F 64.4 °F 78% 30.00 in 9.0 mi East 12.7 mph - N/A   Overcast
4:53 PM 71.1 °F 64.0 °F 78% 29.99 in 9.0 mi East 13.8 mph - N/A   Overcast
5:53 PM 70.0 °F 64.0 °F 81% 29.98 in 10.0 mi East 11.5 mph - N/A   Overcast
6:00 PM 69.8 °F 64.4 °F 83% 29.99 in 10.0 mi ESE 10.4 mph - N/A   Overcast
6:17 PM 69.8 °F 62.6 °F 78% 29.98 in 10.0 mi ESE 10.4 mph - N/A   Overcast
6:53 PM 70.0 °F 63.0 °F 78% 29.96 in 10.0 mi ESE 11.5 mph - N/A   Overcast
7:25 PM 69.8 °F 62.6 °F 78% 29.96 in 10.0 mi ESE 6.9 mph - N/A   Scattered Clouds
7:53 PM 69.1 °F 63.0 °F 81% 29.96 in 10.0 mi SE 6.9 mph - N/A   Partly Cloudy
8:20 PM 69.8 °F 62.6 °F 78% 29.98 in 10.0 mi SE 5.8 mph - N/A   Mostly Cloudy
8:53 PM 69.1 °F 63.0 °F 81% 29.98 in 10.0 mi ESE 4.6 mph - N/A   Overcast
9:53 PM 68.0 °F 63.0 °F 84% 29.98 in 10.0 mi East 4.6 mph - N/A   Overcast
10:53 PM 68.0 °F 63.0 °F 84% 29.99 in 10.0 mi ENE 5.8 mph - N/A   Overcast
11:53 PM 66.9 °F 61.0 °F 81% 29.97 in 10.0 mi East 4.6 mph - N/A   Overcast